TimePST,TemperatureF,Dew PointF,Humidity,Sea Level PressureIn,VisibilityMPH,Wind Direction,Wind SpeedMPH,Gust SpeedMPH,PrecipitationIn,Events,Conditions,WindDirDegrees,DateUTC
12:53 AM,25.0,18.0,75,30.25,10.0,SSW,3.5,-,N/A,,Clear,200,2014-01-19 08:53:00
1:53 AM,23.0,17.1,78,30.25,10.0,Calm,Calm,-,N/A,,Clear,0,2014-01-19 09:53:00
2:53 AM,21.0,16.0,81,30.25,10.0,South,3.5,-,N/A,,Clear,190,2014-01-19 10:53:00
3:53 AM,21.0,15.1,78,30.27,10.0,South,3.5,-,N/A,,Clear,180,2014-01-19 11:53:00
4:53 AM,19.9,14.0,78,30.28,10.0,South,3.5,-,N/A,,Clear,190,2014-01-19 12:53:00
5:53 AM,19.0,12.9,77,30.32,10.0,Calm,Calm,-,N/A,,Clear,0,2014-01-19 13:53:00
6:53 AM,19.0,12.0,74,30.35,10.0,SSW,3.5,-,N/A,,Clear,200,2014-01-19 14:53:00
7:53 AM,18.0,10.9,74,30.37,10.0,South,3.5,-,N/A,,Clear,190,2014-01-19 15:53:00
8:53 AM,24.1,16.0,71,30.36,10.0,South,3.5,-,N/A,,Clear,190,2014-01-19 16:53:00
9:53 AM,35.1,19.0,52,30.32,10.0,Calm,Calm,-,N/A,,Clear,0,2014-01-19 17:53:00
10:53 AM,44.1,25.0,47,30.28,10.0,NE,4.6,-,N/A,,Clear,50,2014-01-19 18:53:00
11:53 AM,48.9,27.0,43,30.23,10.0,NNE,4.6,-,N/A,,Clear,30,2014-01-19 19:53:00
12:53 PM,50.0,28.0,43,30.21,10.0,NE,9.2,-,N/A,,Clear,40,2014-01-19 20:53:00
1:53 PM,52.0,26.1,37,30.19,10.0,NE,9.2,-,N/A,,Clear,40,2014-01-19 21:53:00
2:53 PM,57.0,6.1,13,30.18,10.0,Variable,4.6,-,N/A,,Clear,0,2014-01-19 22:53:00
3:53 PM,48.9,19.9,32,30.20,10.0,Calm,Calm,-,N/A,,Clear,0,2014-01-19 23:53:00
4:53 PM,41.0,24.1,51,30.25,10.0,Calm,Calm,-,N/A,,Clear,0,2014-01-20 00:53:00
5:53 PM,36.0,19.0,50,30.28,10.0,Calm,Calm,-,N/A,,Clear,0,2014-01-20 01:53:00
6:53 PM,30.9,19.0,61,30.32,10.0,Calm,Calm,-,N/A,,Clear,0,2014-01-20 02:53:00
7:53 PM,30.0,17.1,59,30.34,10.0,Calm,Calm,-,N/A,,Clear,0,2014-01-20 03:53:00
8:53 PM,28.0,16.0,61,30.33,10.0,SSW,3.5,-,N/A,,Clear,200,2014-01-20 04:53:00
9:53 PM,27.0,15.1,61,30.30,10.0,SSW,3.5,-,N/A,,Clear,200,2014-01-20 05:53:00
10:53 PM,27.0,15.1,61,30.28,10.0,Calm,Calm,-,N/A,,Clear,0,2014-01-20 06:53:00
11:53 PM,24.1,15.1,69,30.27,10.0,South,3.5,-,N/A,,Clear,190,2014-01-20 07:53:00